Wind_Speed
41 44 43 44 44 44 44 43 42 41 38 38 30 26 23 26 25 24 26 25 21 16 15 16 18 20 17 16 15 17 20 21 24 25 19 19 19 16 18 19 20 23 29
40 41 43 42 42 40 42 41 39 40 34 36 27 23 22 19 16 18 20 18 16 17 15 15 17 15 14 14 14 17 18 22 16 16 19 14 12 11 11 14 19 24 28
40 40 41 42 41 42 43 39 38 37 32 34 24 21 18 16 16 17 13 12 12 17 14 14 12 12 12 12 15 15 15 12 9 8 9 7 10 6 6 11 17 18 25
39 41 41 41 40 42 41 37 36 34 31 31 22 18 15 13 13 15 15 15 15 14 13 11 9 10 10 12 12 9 7 7 4 6 9 10 8 5 6 9 12 18 23
40 41 41 41 40 43 38 35 35 32 30 27 19 14 10 9 9 15 17 17 15 13 13 9 9 7 9 7 7 5 3 1 2 10 14 16 19 16 16 9 11 15 21
39 40 42 40 41 43 38 34 33 29 28 23 18 12 9 10 15 14 13 13 14 12 12 9 6 7 5 4 4 1 3 6 12 13 12 17 17 18 18 17 16 17 22
40 41 41 42 39 44 37 34 32 28 26 21 16 12 11 15 18 13 15 15 14 11 11 10 7 4 6 8 12 8 8 13 23 12 14 16 17 18 20 21 23 25 27
40 42 42 43 41 43 36 34 31 27 24 19 16 13 7 16 18 14 14 15 13 12 15 11 6 7 10 10 18 14 16 20 13 14 16 19 20 19 21 22 23 22 23
41 44 46 48 45 43 36 33 29 26 21 17 17 15 14 17 22 17 16 15 14 13 16 11 8 11 15 12 12 13 16 16 17 17 19 21 22 23 25 27 27 28 28
44 47 50 48 49 41 36 32 28 25 19 16 18 20 16 16 18 17 14 15 15 15 15 13 12 14 19 13 16 20 17 14 19 23 24 26 27 28 28 26 27 27 27
46 49 53 56 52 46 38 32 29 25 18 17 20 21 20 21 17 17 17 16 15 16 15 14 15 15 18 15 18 19 18 18 24 28 27 26 24 23 23 23 22 21 22
50 55 59 59 56 47 36 29 26 22 18 18 22 23 17 22 20 18 18 16 16 15 14 15 17 18 19 16 13 22 22 26 26 25 26 24 21 20 21 21 21 21 21
52 59 62 62 52 36 20 14 14 17 20 22 27 26 21 23 19 17 17 17 17 15 16 17 18 17 18 22 19 21 26 28 27 24 23 22 22 22 22 21 19 17 16
55 61 64 56 43 24 10 3 12 18 23 25 32 26 25 24 18 18 18 17 17 17 17 18 17 17 20 23 23 25 27 29 27 25 22 21 21 20 19 17 16 14 12
56 59 60 49 39 23 5 10 15 19 23 25 27 29 21 24 23 17 16 16 18 18 18 18 18 20 22 26 26 27 28 28 26 23 20 20 21 19 17 16 14 12 10
54 55 59 51 40 24 14 18 19 22 20 24 27 25 19 20 19 19 14 14 16 17 17 18 19 19 26 26 28 29 28 27 25 22 20 19 18 17 15 13 12 11 10
48 47 52 53 38 27 22 21 20 22 22 29 30 24 19 18 17 15 14 15 16 17 17 18 21 23 25 26 28 28 27 25 24 22 19 18 17 16 14 12 11 11 10
41 38 42 46 39 30 26 24 23 22 27 28 25 18 19 18 12 15 13 13 14 16 16 19 21 22 22 26 27 26 25 24 24 23 21 20 19 18 16 15 14 13 12
34 35 31 34 34 31 28 24 23 20 21 22 19 15 9 13 14 14 12 16 15 16 19 22 23 24 25 25 26 26 26 25 24 23 22 21 20 19 18 17 17 17 16
29 30 25 23 22 20 18 18 15 12 15 13 14 14 10 9 14 8 11 15 16 17 19 22 24 26 28 27 25 24 25 25 24 25 24 23 22 21 21 20 20 20 21
27 25 24 16 12 11 7 7 8 8 10 11 13 15 16 13 9 12 10 11 14 15 19 22 24 26 29 31 32 29 27 26 26 25 26 26 25 25 26 25 25 25 25
22 22 20 18 12 4 2 2 7 10 10 11 13 14 15 17 20 21 18 16 17 15 21 22 24 27 28 29 30 32 33 33 32 31 30 30 29 29 29 30 30 29 29
21 21 20 17 16 11 8 10 11 12 15 17 17 17 16 15 18 20 19 19 20 21 23 22 19 27 29 28 29 31 32 33 34 35 36 36 36 37 37 36 35 35 34
25 23 21 20 17 17 16 12 16 19 19 20 21 23 24 26 26 25 25 25 23 23 25 28 29 28 28 29 31 33 33 33 35 36 37 37 37 38 38 38 38 38 37
33 31 27 24 23 21 20 21 20 18 20 25 26 26 27 28 29 30 31 32 34 33 31 32 32 32 33 34 34 33 33 33 34 35 36 37 37 38 38 39 39 38 36
35 33 29 29 30 29 26 26 27 26 25 23 24 27 31 31 32 33 32 30 30 31 32 35 39 40 40 39 39 40 39 37 35 36 38 37 35 35 36 38 40 39 36
Wind_Direction
311 314 310 308 307 307 308 310 309 312 313 319 310 301 289 292 269 261 257 252 246 266 261 252 252 256 266 256 261 269 286 288 296 289 287 267 259 254 248 248 229 220 206
311 314 309 308 310 311 311 311 310 312 314 321 307 300 292 289 249 240 247 243 230 254 249 249 252 259 244 246 263 284 284 290 295 282 271 270 237 245 238 220 209 214 198
312 311 312 316 316 316 314 311 310 312 316 321 305 299 288 275 253 243 236 222 230 244 245 251 249 236 237 256 278 281 298 305 299 268 247 221 190 207 205 197 202 196 192
316 316 316 316 316 320 313 309 308 311 316 318 303 303 284 285 255 215 202 216 232 241 247 241 227 231 250 266 275 290 317 291 3 66 112 127 144 176 171 167 173 186 193
315 316 317 315 314 320 313 307 308 308 313 314 293 284 291 277 234 203 211 231 221 228 237 213 224 238 260 263 257 252 325 294 93 119 108 117 118 110 110 119 136 182 198
317 319 319 316 315 320 314 306 307 303 307 307 280 264 268 244 220 221 215 210 223 220 208 193 199 266 250 195 169 303 345 118 140 129 113 125 131 126 121 122 108 112 129
320 321 321 319 316 322 312 305 304 298 300 298 266 254 252 223 212 217 209 215 214 204 184 182 198 220 175 169 109 111 110 131 131 115 123 129 127 131 129 119 124 123 120
323 323 321 321 318 320 308 302 300 292 291 290 255 236 229 223 211 213 206 205 204 189 183 182 206 182 173 138 126 122 140 130 133 121 126 126 122 122 127 126 121 120 122
325 324 323 324 320 317 307 298 294 286 285 277 238 214 213 207 212 204 198 196 196 186 183 201 203 181 158 138 134 150 139 132 129 131 131 128 124 122 124 123 121 122 124
330 326 324 322 319 312 300 292 284 280 276 261 223 207 208 199 189 189 192 193 196 191 189 200 193 177 161 157 165 158 153 150 143 133 127 124 122 121 120 120 122 123 123
327 326 326 324 321 313 299 284 272 267 259 241 209 197 196 201 199 195 200 193 197 195 195 204 188 176 175 169 155 160 161 155 144 136 132 126 124 123 122 122 121 120 120
332 332 331 327 321 312 301 282 261 248 230 219 197 182 200 199 192 189 197 190 190 187 191 196 190 182 187 183 164 167 160 155 150 146 139 136 136 134 130 128 128 127 126
337 337 336 333 329 324 309 281 236 210 201 198 182 183 186 178 176 186 187 192 186 183 190 196 188 189 194 191 172 164 164 160 157 155 150 147 145 142 138 137 135 136 136
344 344 344 343 342 333 320 241 177 182 185 185 180 175 175 175 178 183 185 190 186 187 193 194 185 187 188 180 177 171 169 167 165 163 163 157 154 153 153 152 151 153 156
350 351 357 358 359 0 349 146 147 164 171 181 165 166 175 177 171 179 182 185 191 189 192 192 187 185 180 175 178 175 176 173 172 173 172 169 166 167 170 170 170 172 177
357 360 11 11 16 27 86 129 138 146 161 170 153 163 169 166 176 181 178 185 190 188 191 192 186 192 183 181 180 180 177 179 180 181 181 181 182 183 185 188 190 192 196
2 7 18 18 27 52 90 110 125 145 154 139 154 163 175 167 171 175 181 183 185 186 191 194 186 180 180 186 185 183 184 186 189 192 193 193 197 200 202 206 208 215 218
3 11 24 27 36 64 83 104 120 130 130 146 155 156 154 165 171 176 179 184 184 183 190 194 190 186 189 187 186 190 194 197 199 202 204 206 207 209 215 222 230 234 241
4 10 25 37 44 62 82 95 110 121 143 156 165 167 158 173 178 189 217 193 185 185 190 192 193 189 186 190 195 197 198 203 208 213 218 220 223 227 231 235 238 244 250
359 6 16 34 46 63 86 110 115 112 146 166 188 196 198 199 199 212 200 193 194 189 193 196 198 200 200 200 203 205 207 210 215 219 225 230 233 237 241 245 249 254 259
350 356 2 12 32 45 72 129 146 146 157 171 189 207 213 203 187 201 210 221 202 207 204 204 205 206 210 210 211 214 217 219 222 227 233 233 236 240 244 248 251 254 258
338 343 348 350 355 340 341 234 222 220 210 205 204 210 215 224 232 233 230 222 222 228 215 211 213 214 216 217 220 222 225 228 232 233 235 242 245 246 248 251 253 256 258
319 325 327 332 327 325 279 254 249 239 241 245 245 240 235 232 223 218 221 231 234 237 230 220 227 224 217 224 229 230 230 233 237 240 243 244 247 251 252 254 258 261 265
303 302 300 305 308 306 298 282 258 251 250 249 247 242 238 240 236 233 234 236 238 239 235 230 230 235 234 235 236 238 242 244 245 245 246 247 249 251 253 256 258 261 266
297 295 286 280 281 282 282 281 277 267 259 253 252 251 249 244 239 241 244 245 242 237 234 234 237 238 240 242 242 242 243 245 247 249 250 251 251 253 255 256 259 262 265
304 303 294 286 280 272 267 268 267 264 267 264 259 255 251 250 248 245 244 246 247 246 242 239 240 242 243 244 244 246 246 248 250 252 252 252 254 257 258 258 259 260 261
Height
5710 5703 5697 5691 5685 5678 5672 5666 5661 5654 5648 5643 5637 5634 5631 5629 5628 5630 5631 5634 5637 5637 5638 5639 5642 5643 5644 5645 5645 5646 5645 5644 5642 5638 5636 5635 5635 5635 5636 5635 5638 5642 5649
5700 5693 5688 5681 5675 5669 5662 5657 5651 5645 5639 5635 5630 5627 5624 5622 5621 5623 5625 5629 5632 5634 5635 5636 5637 5639 5640 5641 5642 5641 5641 5638 5635 5634 5631 5630 5630 5631 5631 5631 5636 5640 5647
5690 5683 5677 5671 5664 5658 5652 5647 5642 5636 5631 5627 5623 5620 5619 5618 5618 5619 5622 5625 5628 5629 5631 5633 5634 5635 5637 5638 5639 5638 5636 5634 5632 5629 5627 5627 5628 5629 5630 5631 5635 5640 5646
5679 5672 5667 5661 5655 5649 5642 5637 5633 5628 5624 5620 5617 5615 5614 5612 5612 5614 5617 5622 5625 5627 5629 5630 5632 5633 5635 5636 5636 5636 5634 5632 5631 5628 5627 5627 5629 5630 5631 5632 5635 5639 5646
5670 5664 5657 5652 5646 5640 5633 5628 5624 5620 5616 5614 5612 5610 5611 5610 5611 5614 5617 5619 5622 5625 5627 5629 5630 5632 5633 5634 5634 5634 5632 5631 5632 5631 5630 5631 5632 5633 5633 5630 5633 5639 5646
5661 5654 5649 5642 5637 5630 5623 5619 5615 5612 5609 5608 5607 5606 5607 5608 5610 5613 5616 5618 5620 5623 5625 5627 5629 5631 5632 5633 5634 5633 5631 5631 5632 5633 5634 5635 5636 5637 5638 5638 5636 5643 5646
5653 5646 5640 5634 5627 5619 5614 5610 5606 5604 5602 5602 5601 5602 5603 5605 5608 5611 5613 5616 5619 5622 5623 5627 5629 5631 5632 5632 5634 5635 5634 5634 5636 5637 5637 5639 5640 5641 5643 5646 5648 5650 5652
5644 5638 5631 5624 5616 5610 5604 5600 5597 5595 5595 5594 5595 5597 5600 5601 5605 5608 5611 5614 5618 5621 5623 5627 5629 5631 5632 5634 5636 5637 5638 5638 5640 5641 5642 5644 5644 5646 5648 5650 5653 5656 5659
5637 5629 5621 5613 5605 5597 5592 5589 5586 5585 5586 5586 5589 5593 5596 5597 5602 5606 5609 5613 5617 5620 5623 5627 5629 5631 5633 5636 5637 5639 5642 5643 5643 5645 5646 5648 5650 5651 5653 5654 5658 5662 5666
5629 5621 5612 5602 5594 5586 5580 5576 5575 5574 5576 5579 5582 5588 5592 5596 5600 5604 5607 5612 5615 5619 5623 5626 5629 5631 5633 5636 5639 5641 5644 5646 5647 5649 5651 5654 5656 5657 5660 5663 5665 5668 5672
5623 5612 5601 5588 5578 5569 5563 5561 5561 5563 5567 5571 5576 5583 5589 5594 5598 5602 5605 5610 5614 5618 5622 5625 5628 5631 5634 5637 5640 5643 5647 5650 5651 5652 5655 5658 5661 5664 5666 5669 5671 5674 5677
5615 5602 5589 5574 5559 5548 5542 5541 5545 5551 5558 5564 5570 5579 5585 5590 5596 5601 5605 5609 5613 5616 5620 5624 5627 5630 5634 5638 5641 5644 5648 5652 5655 5657 5658 5661 5665 5668 5671 5673 5676 5679 5682
5610 5595 5577 5558 5540 5530 5526 5527 5533 5541 5550 5558 5566 5575 5583 5589 5594 5600 5604 5607 5612 5616 5619 5622 5627 5630 5633 5637 5642 5646 5650 5654 5657 5660 5662 5665 5668 5671 5674 5677 5680 5683 5685
5605 5588 5568 5547 5531 5521 5520 5523 5529 5536 5545 5554 5563 5573 5581 5588 5594 5599 5602 5606 5610 5615 5618 5622 5626 5629 5633 5637 5642 5646 5651 5655 5659 5662 5665 5668 5671 5674 5677 5679 5682 5685 5687
5603 5586 5565 5545 5529 5521 5519 5523 5530 5538 5547 5555 5564 5573 5581 5588 5594 5599 5603 5606 5609 5614 5618 5621 5625 5629 5633 5637 5642 5646 5651 5655 5660 5663 5666 5670 5673 5676 5678 5681 5683 5685 5687
5605 5590 5570 5553 5537 5528 5526 5531 5537 5544 5552 5559 5568 5577 5584 5589 5595 5597 5602 5606 5610 5613 5617 5621 5624 5628 5633 5638 5642 5647 5651 5656 5660 5663 5666 5670 5673 5676 5678 5681 5683 5685 5687
5609 5597 5581 5566 5552 5544 5543 5546 5550 5555 5562 5569 5576 5582 5587 5592 5597 5601 5604 5607 5610 5613 5616 5621 5625 5628 5633 5638 5642 5647 5652 5656 5660 5664 5667 5670 5673 5675 5677 5680 5682 5684 5686
5614 5605 5593 5582 5571 5563 5561 5562 5566 5570 5574 5579 5584 5588 5592 5596 5599 5602 5605 5608 5611 5613 5617 5621 5625 5629 5633 5638 5643 5647 5652 5655 5658 5661 5665 5668 5671 5673 5676 5678 5680 5682 5683
5619 5612 5605 5596 5590 5584 5581 5581 5583 5585 5587 5590 5592 5594 5597 5599 5601 5604 5606 5609 5611 5614 5617 5621 5625 5629 5633 5637 5641 5645 5648 5652 5656 5659 5662 5665 5668 5670 5672 5675 5677 5678 5679
5622 5617 5612 5607 5602 5598 5595 5593 5593 5594 5595 5596 5598 5599 5600 5601 5603 5605 5607 5609 5611 5614 5617 5620 5624 5627 5631 5635 5639 5642 5645 5648 5651 5654 5657 5660 5663 5665 5667 5669 5670 5671 5672
5622 5619 5615 5612 5608 5604 5602 5600 5599 5597 5597 5597 5598 5599 5601 5602 5603 5605 5607 5608 5611 5613 5615 5618 5621 5624 5627 5630 5633 5637 5640 5643 5646 5649 5652 5655 5657 5659 5660 5662 5664 5665 5666
5621 5617 5614 5612 5609 5606 5603 5602 5600 5599 5598 5597 5597 5597 5598 5599 5600 5602 5604 5606 5607 5609 5612 5614 5617 5619 5622 5625 5628 5631 5634 5637 5640 5642 5645 5647 5650 5652 5653 5655 5656 5658 5659
5616 5614 5611 5609 5607 5604 5602 5600 5598 5596 5595 5595 5595 5595 5594 5595 5595 5597 5598 5600 5602 5604 5606 5608 5610 5612 5616 5619 5621 5624 5626 5629 5632 5634 5636 5639 5641 5643 5645 5646 5647 5649 5649
5609 5607 5605 5603 5601 5599 5597 5595 5593 5591 5590 5589 5588 5588 5588 5589 5590 5590 5591 5593 5594 5596 5598 5601 5603 5606 5608 5610 5612 5615 5618 5621 5623 5624 5627 5629 5630 5632 5634 5636 5637 5638 5640
5599 5597 5595 5593 5592 5591 5590 5589 5587 5585 5583 5582 5581 5581 5580 5580 5581 5582 5583 5584 5586 5587 5589 5592 5594 5596 5598 5600 5603 5605 5608 5610 5612 5614 5616 5618 5620 5622 5624 5625 5626 5628 5629
5587 5584 5583 5583 5581 5580 5579 5578 5577 5576 5575 5574 5573 5571 5571 5571 5571 5572 5573 5574 5575 5577 5578 5581 5583 5585 5587 5589 5591 5593 5596 5598 5600 5602 5604 5606 5609 5610 5612 5614 5615 5617 5619